sat.trackr.live / text

‹ back to catalog

STARLINK-4293

NORAD 52989 · 2022-076D

PAYLOAD ACTIVE UNKNOWN

§ Identity

Operator
Country
US
Launch date
2022-07-07
Launch site
AFETR
Launch vehicle
Mass (kg)
RCS (m²)

Purposes: comms

External: N2YO · Heavens-Above · Gunter

§ Orbital elements

Epoch: 2026-05-25T06:00:02.000160Z

Period
93.88 min
Inclination
53.2183°
Eccentricity
0.0001673
Mean motion
15.33825060 rev/d
Perigee alt
463.3 km
Apogee alt
465.6 km
Semi-major
6,842.5 km
B*
2.9318e-3
RAAN
115.4542°
Arg perigee
90.2303°
Mean anomaly
295.8569°
Rev number
582

§ Raw data

STARLINK-42931 52989U 22076D   26145.25002315  .00098168  00000+0  29318-2 0  99922 52989  53.2183 115.4542 0001673  90.2303 295.8569 15.33825060  5825

JSON: /api/v1/satellites/52989 · /tle

For live sub-satellite position, see the globe view (requires WebGL).

§ Visibility from observer

Set your observer location to see the next 7 days of passes ≥ 10°. The values pass through the URL so the page stays shareable.

No JS? Fill the form by hand. The geolocation button needs JavaScript.